Tracking 27107 objects as of 20-Mar-2023
HD Live streaming from Space Station
objects crossing your sky now

STARLINK-2568

Track STARLINK-2568 now!
10-day predictions
STARLINK-2568 is classified as:


NORAD ID: 48406
Int'l Code: 2021-038BF
Perigee: 553.4 km
Apogee: 555.4 km
Inclination: 53.1 °
Period: 95.6 minutes
Semi major axis: 6925 km
RCS: Unknown
Launch date: May 4, 2021
Source: United States (US)
Launch site: AIR FORCE EASTERN TEST RANGE (AFETR)
Your satellite tracking list
Your tracking list is empty




NASA's NSSDC Master Catalog

Two Line Element Set (TLE):
1 48406U 21038BF  23079.55569795  .00016145  00000-0  11007-2 0  9996
2 48406  53.0538 172.9734 0001442 103.8700 256.2449 15.06386521103756
Source of the keplerian elements: AFSPC